GFSGL_925_rhum_000.txt.gz
RH
56 62 56 54 55 49 54 56 59 64 51 46 44 46 46 40 42 49 54 54 49 47 46 43 41 42 43 43 46 51 57 66 84 69 65 58 54 51 48 42 40 46 48
63 55 59 63 53 54 59 62 61 51 46 47 55 52 53 44 42 46 45 40 39 38 38 42 44 46 52 57 60 64 68 69 79 80 82 77 68 64 64 62 56 48 47
58 68 70 62 45 58 60 63 68 68 56 60 62 58 52 48 45 40 34 36 38 41 46 52 57 60 61 60 59 61 61 62 67 81 81 73 69 66 59 62 68 66 65
72 79 72 62 59 68 82 80 80 77 81 87 75 70 56 44 38 37 38 43 50 56 58 56 54 53 54 55 59 64 69 73 76 79 76 79 78 75 70 72 72 67 61
80 84 86 83 84 85 88 90 82 83 93 79 80 75 42 36 36 40 51 60 59 57 54 54 57 59 72 75 79 83 84 92 93 89 83 78 75 76 76 68 71 68 70
89 92 92 89 96 98 90 76 71 70 76 74 69 45 40 40 48 68 71 72 68 66 69 72 72 79 75 83 88 89 88 92 92 88 82 78 75 72 65 63 71 75 77
84 63 68 65 59 55 57 59 53 45 45 44 41 42 49 63 75 78 75 68 71 76 82 85 90 90 88 90 96 94 94 93 92 94 94 91 83 75 77 81 82 81 74
64 65 67 65 49 43 44 46 44 43 43 45 50 62 69 64 61 60 65 76 79 84 85 86 92 93 97 95 92 95 96 95 90 87 95 94 92 88 84 80 79 81 84
72 74 63 50 50 51 53 49 47 49 52 61 71 64 62 60 63 73 86 86 89 87 85 94 98 98 95 99 96 98 98 96 89 91 92 97 96 93 90 96 97 95 91
69 58 50 51 52 57 54 53 54 58 67 62 62 65 66 66 62 80 90 91 95 99 93 94 95 99 98 98 98 99 97 94 93 97 96 89 86 95 98 98 99 95 92
58 50 47 48 56 60 56 58 61 63 64 63 69 76 74 67 74 82 90 91 98 100 100 98 97 99 95 90 93 97 98 95 98 99 99 98 96 94 94 94 99 98 95
54 51 45 49 58 55 59 57 61 68 69 74 80 82 78 76 83 81 93 96 98 98 99 98 98 97 93 94 95 98 99 98 100 100 100 99 99 98 99 95 90 90 99
55 52 52 53 57 56 62 59 66 75 81 84 96 95 94 96 82 75 86 100 96 96 98 98 96 96 92 87 98 100 96 96 97 99 96 95 98 96 98 98 98 97 98
58 58 59 60 61 60 67 63 71 79 81 97 94 98 99 96 92 90 100 97 96 96 96 95 95 90 87 91 91 95 96 97 99 100 100 97 97 98 98 98 98 98 99
59 62 68 72 75 77 81 69 77 76 82 94 88 94 99 96 98 97 97 96 97 96 96 94 92 92 92 95 97 96 95 96 97 96 96 97 97 98 98 97 98 98 97
62 67 76 70 69 83 80 80 77 74 75 80 89 92 92 96 96 97 98 98 96 95 95 96 96 98 98 98 98 100 96 98 97 96 96 98 98 98 98 100 99 98 98
71 80 73 74 77 78 86 87 87 78 79 69 80 94 92 95 98 98 99 97 97 94 97 97 97 98 99 99 100 100 100 97 96 96 96 96 96 98 100 98 97 98 98
83 86 85 82 74 75 86 91 85 92 93 78 75 89 96 98 98 98 100 94 95 95 97 97 97 98 98 98 98 98 100 96 96 96 96 96 97 97 98 98 98 97 97
95 86 81 84 78 81 88 77 86 89 91 85 85 82 87 97 100 100 100 96 97 98 97 96 96 96 96 99 99 98 98 100 100 99 98 98 98 97 98 98 99 98 94
90 88 89 86 83 77 78 85 84 91 92 88 92 96 96 90 95 95 95 96 96 96 96 96 96 96 98 100 100 100 96 98 100 98 100 98 98 99 99 97 96 96 98
92 87 97 86 84 84 82 87 89 96 97 90 93 93 97 97 98 98 96 96 96 95 94 96 98 98 97 98 98 98 98 98 99 100 100 98 96 96 99 98 95 95 97
89 89 90 83 91 86 86 86 89 96 98 92 91 90 93 93 96 96 96 95 73 63 69 82 89 97 100 100 99 98 95 96 100 97 98 96 96 94 94 95 95 95 94
86 96 85 86 88 90 87 81 86 92 96 94 92 94 94 95 96 96 96 70 63 62 57 65 68 75 89 95 97 98 95 88 86 96 97 94 94 95 92 94 93 92 90
97 93 92 82 85 91 93 85 86 88 94 95 89 94 95 96 96 96 90 84 70 60 57 60 64 68 74 83 88 91 91 90 80 82 86 87 90 94 92 94 95 95 94
90 97 97 98 96 99 96 92 87 82 88 95 91 91 94 96 94 92 85 85 80 70 63 56 61 61 56 58 70 74 79 83 86 85 77 73 76 82 87 92 94 94 96
95 97 97 95 92 99 100 96 88 86 91 95 93 94 94 87 90 93 95 94 92 83 70 64 56 56 59 57 55 48 48 56 78 84 82 75 70 71 76 83 81 83 90

GFSGL_925_rhum_003.txt.gz
RH
62 60 54 57 59 48 54 63 68 72 61 65 67 70 77 88 91 70 54 48 56 59 64 65 63 59 52 52 51 50 49 48 47 41 42 47 49 46 43 42 44 41 43
60 58 66 60 50 54 67 73 71 74 60 71 72 85 92 80 73 67 57 39 41 45 45 49 49 49 56 61 62 63 60 57 56 52 48 51 55 51 53 55 54 53 54
70 80 72 68 65 62 88 92 93 91 86 90 97 93 79 64 56 43 36 35 39 48 55 62 64 66 62 60 61 59 58 56 54 53 51 49 52 53 52 53 54 54 55
80 84 86 88 87 91 98 98 97 91 84 86 84 88 84 70 44 35 34 41 50 56 59 63 62 61 60 58 56 54 54 54 52 53 51 49 48 48 54 54 52 55 56
86 90 90 98 99 94 86 75 67 70 80 88 93 82 49 42 45 54 59 64 66 66 67 68 68 70 74 74 68 63 63 63 62 62 60 60 58 59 63 58 57 58 59
84 73 61 63 67 66 70 72 68 62 50 42 43 42 43 55 58 71 80 76 76 72 69 68 68 71 73 83 90 90 85 74 68 67 64 59 55 54 54 55 53 55 57
67 61 73 77 64 52 52 52 52 53 52 52 54 60 66 73 69 70 75 72 72 73 72 70 67 67 75 76 78 85 90 90 92 86 83 73 69 65 61 61 61 60 56
63 77 80 66 53 54 55 55 54 54 56 57 65 73 69 65 61 68 84 77 81 80 77 74 74 75 78 86 85 81 80 83 82 85 80 75 69 67 67 70 62 59 60
68 75 64 54 56 58 57 56 57 58 60 66 65 68 67 70 79 81 87 83 82 86 83 82 82 80 84 93 92 92 86 74 73 82 88 84 81 84 82 76 83 74 76
69 66 49 50 58 57 58 56 60 61 64 69 69 70 79 84 85 91 87 82 85 84 82 83 88 93 98 99 99 95 90 78 82 96 96 86 89 95 98 94 91 83 71
67 56 52 47 48 54 52 59 60 61 76 79 86 87 90 84 88 92 88 87 88 86 84 80 85 97 96 97 96 94 91 88 90 90 84 78 81 94 86 82 94 96 82
73 58 56 49 49 52 58 60 63 67 78 87 88 83 79 90 90 88 92 95 93 96 91 94 99 95 99 97 96 95 98 99 95 96 89 82 84 89 85 82 76 82 90
62 63 60 53 56 62 62 66 68 71 80 78 75 75 73 76 83 88 98 98 92 95 98 96 95 96 98 95 98 100 100 98 95 92 89 86 91 91 97 98 96 96 98
64 64 64 66 68 72 74 77 71 80 80 77 76 77 77 77 80 86 90 87 92 97 97 99 97 96 95 94 93 96 99 99 97 94 92 93 99 99 98 98 97 97 98
64 65 70 76 77 76 80 77 79 88 85 82 77 80 86 84 89 96 96 96 98 97 97 98 97 96 84 84 86 90 94 95 94 96 96 95 95 95 94 99 96 94 93
67 72 78 79 82 78 74 75 80 78 77 79 90 91 88 91 96 97 98 99 98 95 96 95 95 94 89 87 88 88 90 94 96 96 97 96 95 96 95 97 96 91 89
79 80 82 81 83 79 82 85 83 82 74 73 78 92 91 90 96 97 99 99 99 97 95 95 96 96 93 89 90 90 91 96 99 97 97 97 98 96 96 96 96 92 86
86 91 89 83 86 86 90 88 90 90 92 91 87 91 97 94 96 98 100 98 97 98 96 96 96 96 94 93 94 96 97 97 99 99 98 100 100 97 94 92 93 94 89
90 91 83 82 81 77 74 88 92 92 93 93 89 87 98 99 98 100 100 98 96 96 97 96 99 99 100 100 100 100 100 100 100 100 100 100 100 98 94 95 95 98 95
98 86 90 91 88 90 89 90 88 91 89 94 90 95 96 92 93 95 97 98 97 97 98 98 100 100 100 100 100 100 99 99 99 98 100 100 100 100 97 97 96 91 90
85 93 92 89 93 96 94 92 93 95 94 94 96 100 98 98 96 95 96 96 90 88 96 100 100 100 100 100 100 100 100 100 100 100 100 100 100 100 100 99 96 93 90
86 88 92 87 88 97 94 93 95 97 97 97 98 99 92 100 98 96 97 96 97 97 99 100 100 100 100 100 100 100 100 100 100 100 100 100 100 99 98 96 94 93 89
93 95 91 95 86 88 98 93 94 96 97 100 100 100 100 100 100 98 97 100 99 95 80 92 100 98 88 96 95 98 100 100 98 89 97 100 100 100 99 94 93 89 89
92 96 99 100 96 98 99 99 90 84 89 100 100 100 100 100 100 100 100 100 99 87 68 61 74 74 64 63 68 73 87 89 87 80 75 87 98 100 100 97 96 98 91
93 98 100 100 97 99 99 100 98 87 91 99 100 100 100 100 100 100 100 99 95 88 76 67 59 61 64 63 53 53 58 75 76 75 72 73 71 80 89 97 100 97 98
97 99 100 99 95 96 100 100 100 96 94 97 99 97 93 96 86 91 99 100 100 96 59 61 61 55 48 49 57 56 49 43 44 52 61 68 70 75 92 92 94 92 95

GFSGL_925_rhum_009.txt.gz
RH
48 49 51 51 51 50 49 50 62 69 65 70 78 79 81 83 89 96 84 76 78 76 66 56 50 47 44 38 36 37 36 38 42 36 32 31 32 34 34 36 39 42 41
48 46 45 44 46 46 50 64 65 65 72 74 78 79 80 90 93 88 85 71 58 57 56 55 53 48 45 41 39 38 37 37 37 39 35 35 35 35 36 38 38 37 37
48 44 41 43 47 53 58 58 61 60 56 56 55 56 50 48 44 41 39 42 47 47 47 46 45 44 43 42 43 43 41 39 38 37 36 34 34 34 35 35 37 38 38
46 42 43 48 50 52 55 53 46 43 41 38 36 36 37 37 38 37 40 45 43 39 40 43 44 46 47 48 50 48 45 43 40 40 38 36 34 33 33 36 37 37 38
46 43 45 47 47 48 48 44 40 38 36 35 37 37 38 40 41 56 57 55 53 49 46 44 42 44 48 52 53 53 54 53 48 43 41 39 37 36 35 36 38 40 42
45 43 44 46 55 51 43 39 33 34 36 38 39 40 42 42 51 55 60 62 56 52 49 46 45 45 48 49 54 58 58 59 57 56 52 50 47 47 47 49 52 53 56
40 41 40 51 58 47 42 34 33 35 37 39 40 41 44 47 54 57 68 70 65 59 55 54 53 48 47 48 49 52 68 77 82 76 74 69 64 60 62 66 67 67 65
38 39 45 51 54 45 38 34 34 35 38 39 41 46 52 52 62 77 87 71 65 62 59 59 59 56 50 59 70 68 68 70 72 81 84 74 69 68 65 66 68 72 73
43 39 42 51 56 44 36 36 37 38 39 40 47 55 64 68 69 92 84 72 75 71 65 64 69 67 62 74 79 82 77 72 72 86 86 77 69 67 70 78 90 96 85
43 37 44 45 48 45 38 38 38 38 40 52 64 67 76 72 83 77 85 72 81 80 75 69 73 74 84 81 93 96 92 77 74 79 78 77 95 97 87 85 76 76 76
43 41 49 54 49 42 38 38 38 40 50 75 84 80 73 78 72 78 89 80 82 94 85 84 82 97 95 96 97 94 91 96 86 81 79 79 74 71 69 88 83 80 80
45 50 58 60 48 40 40 38 41 44 56 68 79 74 69 67 74 82 87 83 93 92 89 88 98 97 98 98 96 96 96 92 90 93 93 90 89 81 72 73 83 96 91
73 71 78 59 47 39 39 39 44 49 59 74 60 64 58 65 69 68 82 91 89 94 96 96 95 95 96 95 97 89 95 98 98 93 90 90 95 97 95 93 94 98 95
69 66 57 46 45 44 42 43 45 55 69 63 59 59 65 77 60 73 87 93 91 95 96 95 97 95 94 96 96 96 98 97 93 95 93 94 96 99 99 98 99 94 98
70 55 50 47 46 48 48 50 53 66 75 68 66 70 79 73 74 88 95 94 96 97 95 97 96 95 95 96 91 94 96 93 94 94 96 94 95 95 96 98 84 90 93
66 57 57 64 57 60 53 54 66 76 76 77 74 84 82 79 87 90 92 95 98 98 96 94 94 95 95 94 93 90 88 90 90 93 94 96 94 92 96 98 87 85 76
79 71 64 60 62 61 67 74 71 72 85 93 90 84 84 84 86 87 89 93 98 95 93 93 94 95 89 78 89 90 90 92 94 92 94 97 94 96 97 96 88 97 89
80 69 81 73 74 76 80 85 78 78 75 69 89 71 81 88 85 87 88 94 88 91 92 92 90 79 75 72 76 86 90 92 91 93 95 94 94 95 95 92 94 84 81
68 78 90 90 91 86 91 87 83 78 70 68 71 59 70 82 97 97 90 88 87 83 83 79 74 77 83 84 87 89 94 94 95 95 93 95 93 95 90 88 93 91 80
55 72 82 88 88 86 86 84 80 77 70 67 71 70 74 80 82 86 88 84 75 71 74 72 76 82 87 87 88 89 90 88 93 93 94 97 96 92 97 91 89 91 86
63 79 83 85 90 83 84 85 84 82 79 70 74 90 73 86 84 88 89 83 76 77 81 80 81 85 86 85 85 90 87 88 87 90 91 96 96 93 93 94 89 89 82
81 96 94 94 90 93 92 83 88 88 83 77 76 79 82 95 85 88 90 91 86 84 86 86 85 84 86 90 90 90 86 87 89 91 91 89 90 90 95 95 88 90 86
89 97 96 92 91 91 94 95 93 92 88 86 83 80 78 76 83 86 91 96 93 89 91 91 92 91 93 96 95 93 90 96 99 96 96 91 80 79 87 82 88 81 85
89 94 94 95 95 90 92 93 96 95 93 90 92 92 84 76 78 82 94 98 97 97 92 94 93 92 95 96 96 97 94 64 82 83 97 91 80 79 78 74 76 74 73
94 93 94 93 93 92 92 95 96 95 95 93 95 94 87 81 77 77 81 86 93 94 93 93 96 94 96 96 78 50 29 28 36 38 100 86 85 83 83 74 79 73 72
92 94 94 94 94 95 96 92 96 95 95 94 94 94 90 83 80 80 82 85 86 86 88 88 93 96 97 90 79 33 27 26 25 34 94 89 86 82 87 79 80 73 70

GFSGL_925_rhum_012.txt.gz
RH
48 48 46 46 45 47 48 58 62 62 62 62 64 64 66 68 75 69 70 78 77 65 66 70 80 70 71 68 59 53 44 45 64 47 42 39 37 43 47 44 58 51 43
48 46 44 42 43 47 52 55 55 58 60 57 53 52 48 48 45 45 49 48 48 59 58 56 54 52 52 49 49 49 48 48 47 52 46 42 39 37 36 35 36 42 39
44 42 42 42 47 48 47 53 55 53 48 43 40 38 38 38 38 39 40 48 54 53 52 54 52 47 46 47 49 50 52 53 55 54 51 44 41 38 36 36 36 37 39
42 40 42 44 46 46 49 50 47 44 40 38 37 38 40 40 41 47 52 54 56 56 56 55 55 52 50 51 63 59 58 54 56 56 55 49 44 41 39 38 38 36 36
50 47 42 42 44 49 52 50 44 38 36 36 38 40 40 42 44 49 53 58 60 61 60 58 56 53 53 51 51 54 55 56 58 61 61 58 54 50 50 52 55 51 50
56 57 49 56 50 54 59 54 42 35 35 37 40 41 43 47 53 58 66 71 74 73 70 65 62 61 56 56 55 55 51 50 58 62 62 64 63 62 65 64 66 68 80
50 44 55 70 72 62 57 47 41 37 36 39 41 44 49 56 63 76 79 77 75 70 71 70 68 65 64 63 70 78 76 82 82 76 79 81 76 69 68 68 68 69 74
33 46 72 71 64 50 53 47 40 38 38 40 45 49 56 63 62 66 81 81 74 72 75 71 71 74 74 72 75 80 79 72 74 78 81 89 88 85 81 81 83 84 80
28 55 68 64 52 57 50 44 40 39 40 47 56 63 69 72 72 86 96 88 84 78 74 82 80 74 70 74 83 84 86 84 77 73 84 94 92 85 83 95 92 85 85
52 59 69 73 68 61 66 43 38 40 48 58 71 77 78 72 80 86 97 94 91 85 87 84 81 82 97 100 99 97 98 96 90 82 82 76 71 70 70 76 98 96 80
61 66 81 91 92 69 48 41 40 45 48 65 73 68 70 73 74 82 97 97 96 96 93 89 89 97 97 95 96 96 95 96 93 91 86 82 81 82 80 78 73 93 97
69 66 69 71 73 56 46 42 42 45 57 70 70 68 67 69 75 71 96 86 85 98 97 97 96 93 98 96 96 97 96 93 90 95 97 97 97 96 92 89 77 80 90
60 67 69 68 58 49 44 41 44 52 64 70 69 67 68 75 71 82 83 83 91 96 96 97 98 96 98 94 95 95 95 94 96 97 96 96 95 88 84 84 85 86 85
61 64 62 52 48 46 47 46 52 60 72 71 70 72 76 83 77 86 94 93 94 94 93 94 96 92 95 95 96 94 95 96 93 97 95 94 95 95 97 96 99 98 99
67 66 61 64 62 57 54 55 58 68 71 74 75 77 88 89 84 85 90 97 96 95 94 94 94 93 96 96 93 91 92 90 93 93 96 97 96 94 93 90 97 84 89
79 75 71 63 65 63 62 63 66 70 79 78 84 83 82 88 85 82 85 87 94 96 94 96 96 96 96 96 96 95 94 95 96 96 95 94 97 97 98 95 97 97 91
82 80 71 71 76 72 75 82 84 78 77 79 92 91 88 89 82 82 85 86 98 93 96 96 96 87 87 86 92 96 97 96 94 96 96 96 93 94 97 94 95 93 88
72 67 83 89 89 79 78 80 80 89 84 80 79 81 80 80 80 92 91 81 89 90 92 96 88 87 89 91 93 96 99 96 94 96 96 96 93 97 96 93 94 100 98
69 65 73 75 80 79 77 80 91 88 82 78 73 77 78 66 85 93 90 88 82 79 80 79 81 90 93 94 94 94 98 97 94 93 97 98 97 95 94 93 90 88 90
61 66 72 75 78 92 90 84 84 92 86 83 76 92 80 60 88 88 88 92 83 81 85 88 88 90 90 92 92 92 98 96 97 97 96 99 98 97 97 91 92 93 92
63 77 86 76 76 95 82 88 95 94 91 87 84 94 84 71 93 90 90 94 91 84 86 85 94 88 90 89 92 91 97 95 89 92 93 100 100 96 96 92 93 94 85
77 76 86 96 94 89 95 86 82 95 94 94 90 89 85 90 94 83 91 92 84 91 91 88 89 90 94 90 97 93 95 88 77 90 87 93 99 83 93 91 87 82 92
76 77 87 89 92 96 90 82 91 92 94 93 86 92 92 88 85 86 87 86 88 84 95 86 91 94 91 86 92 92 98 71 61 71 84 94 99 83 86 85 86 89 75
78 76 84 89 91 93 92 92 94 87 93 96 91 91 92 93 84 82 83 89 88 86 88 94 85 95 93 90 89 52 46 33 34 38 82 98 96 86 82 88 74 90 75
78 88 88 89 92 92 93 92 94 91 91 92 94 91 91 93 90 88 83 84 88 84 92 93 87 91 88 86 98 63 32 27 27 38 73 96 87 88 73 91 78 82 75
81 84 78 88 92 90 91 95 94 89 92 91 92 95 92 94 90 86 88 84 84 90 80 92 87 92 84 97 90 39 28 27 26 47 90 93 85 89 72 86 83 82 80

GFSGL_925_rhum_015.txt.gz
RH
48 48 47 44 48 47 48 53 54 52 48 58 57 46 39 40 39 39 40 42 57 59 56 52 48 52 65 67 68 61 61 61 70 59 55 49 45 44 43 48 60 62 78
45 45 44 44 44 45 48 46 49 52 53 50 41 37 38 39 40 40 44 51 54 54 53 50 52 50 49 50 54 50 50 51 58 66 57 50 48 44 42 39 37 50 55
42 47 46 51 56 59 48 49 51 48 45 40 37 38 39 39 40 44 48 48 51 54 56 59 58 53 55 57 58 57 57 61 59 60 60 52 50 48 44 40 39 38 34
47 47 52 58 62 59 52 53 50 50 41 36 37 37 38 40 45 46 48 56 61 66 67 67 66 65 62 65 69 63 57 62 62 58 55 58 59 57 55 57 59 55 55
42 46 50 58 59 61 68 69 88 48 38 36 36 39 41 46 49 54 60 70 69 67 63 64 67 71 72 69 73 78 80 66 61 58 63 64 62 60 65 67 70 66 60
31 36 57 62 67 73 77 96 66 42 38 38 37 42 49 52 59 64 65 65 72 73 69 58 62 74 70 76 72 86 89 90 84 70 68 70 69 68 66 66 68 70 85
29 49 68 71 75 82 86 78 50 41 38 37 44 51 52 57 65 67 73 81 91 80 76 74 71 73 77 78 75 77 73 75 86 86 97 88 81 68 78 79 78 79 78
46 55 65 69 74 81 89 86 45 44 38 49 53 56 65 66 61 77 88 89 90 87 84 77 83 88 87 86 85 88 83 79 76 72 79 78 81 85 92 88 90 99 98
59 64 70 76 83 88 91 60 70 48 49 52 56 67 64 65 79 88 88 90 90 88 86 87 86 87 90 98 99 94 95 96 96 93 87 92 91 86 89 98 99 99 86
65 66 67 73 77 80 81 69 44 48 58 63 70 65 72 78 78 80 96 97 93 95 95 92 91 92 97 97 97 96 100 83 92 86 73 69 64 64 64 68 78 95 95
60 61 65 70 78 74 76 52 48 52 64 68 62 65 64 71 68 81 92 92 93 99 97 94 97 96 97 97 96 96 97 96 96 94 86 80 80 80 79 78 78 84 90
60 63 65 65 63 57 49 45 52 56 62 66 67 67 64 67 70 83 86 83 85 98 98 97 96 97 97 97 96 96 96 96 95 96 96 95 96 95 95 98 98 96 92
64 64 63 58 58 54 52 52 56 61 68 71 69 69 72 78 72 81 90 92 92 95 96 97 97 98 97 95 96 95 95 97 97 97 97 97 96 96 95 96 98 99 94
70 70 67 68 64 60 57 57 59 66 70 73 72 75 76 78 80 96 93 90 90 97 86 96 94 95 95 96 93 94 95 96 95 96 96 96 96 97 97 98 100 98 98
71 76 75 72 65 68 65 65 73 74 76 77 79 83 82 83 86 92 87 93 95 94 90 91 93 95 95 96 96 95 94 95 96 96 97 98 98 96 97 96 98 99 98
71 75 72 74 78 74 76 79 78 69 73 78 82 86 87 86 93 83 82 85 94 88 87 98 97 96 96 95 96 97 96 96 97 96 98 98 98 97 100 90 88 96 97
76 74 74 79 88 85 79 76 75 71 77 80 84 92 91 88 82 87 88 81 81 83 87 96 95 96 98 98 100 100 99 97 96 96 97 97 97 96 99 95 92 93 96
74 72 77 70 73 79 75 77 80 86 93 78 83 87 87 84 80 86 90 78 74 78 81 92 95 96 99 100 100 100 98 98 99 96 96 97 99 98 98 96 93 97 95
75 73 74 70 75 75 76 84 83 85 83 78 85 90 92 78 64 80 90 92 85 79 80 87 97 95 89 93 94 92 99 96 90 91 94 98 99 98 96 98 96 94 90
76 75 71 73 71 75 82 88 77 87 93 81 88 94 94 80 71 78 89 93 86 84 86 79 89 97 92 86 95 93 94 74 76 83 89 94 97 98 98 97 94 97 77
82 79 83 87 79 78 86 87 93 82 81 86 91 94 90 85 87 88 83 87 87 87 90 89 80 91 88 81 95 93 93 73 55 70 88 93 96 98 93 95 94 81 90
83 80 72 74 74 73 79 87 80 84 91 97 96 81 90 92 95 94 83 80 83 82 88 94 82 89 92 82 88 84 77 58 42 47 74 95 93 95 88 88 86 88 76
81 76 77 71 76 76 88 95 78 80 93 84 86 90 91 94 96 90 83 83 84 85 82 87 92 81 89 82 86 89 58 47 42 45 77 99 96 94 83 89 82 90 78
79 73 79 71 72 84 88 88 87 88 83 87 92 98 97 96 92 93 86 86 87 87 87 89 93 83 87 79 93 93 59 31 31 38 86 97 95 90 76 88 83 82 80
84 77 75 81 84 91 90 93 90 86 92 83 90 95 96 94 93 89 83 86 84 83 82 85 88 90 86 83 93 91 40 29 28 48 88 87 85 87 72 86 82 79 79
95 82 85 82 75 81 84 86 91 89 81 81 82 92 92 86 92 97 92 94 91 85 86 83 89 91 86 83 94 80 32 29 27 55 89 92 85 72 82 74 80 77 77

GFSGL_925_rhum_018.txt.gz
RH
48 46 46 46 44 48 54 53 53 56 58 56 56 45 38 39 39 40 41 48 54 51 49 52 54 55 56 51 45 50 66 82 71 59 61 56 50 47 44 42 41 54 76
40 47 49 48 50 49 51 55 59 60 56 52 43 38 38 38 39 40 42 48 49 53 57 60 62 62 59 56 55 58 70 60 67 72 62 57 54 48 43 43 42 40 39
42 48 46 47 54 57 63 64 62 58 65 64 40 38 37 38 40 42 49 51 57 64 65 62 59 56 63 65 68 71 70 65 68 68 66 60 57 52 48 45 47 49 47
30 30 36 48 66 66 61 57 71 75 69 65 44 37 38 42 44 49 53 59 62 61 63 62 60 58 68 75 79 86 88 85 82 77 71 66 61 55 53 61 64 61 58
27 37 49 56 52 59 65 76 78 74 70 66 38 38 43 47 50 55 64 65 64 72 77 73 68 70 70 68 76 86 96 98 96 88 77 71 66 61 60 62 68 65 54
33 45 55 57 59 65 78 82 88 94 51 44 39 45 53 54 60 68 72 81 84 91 86 83 79 80 71 79 86 86 85 97 97 98 95 85 74 68 67 68 71 78 88
48 60 60 56 60 74 83 91 98 93 61 52 48 53 60 68 70 76 82 90 96 92 90 86 84 80 82 89 87 92 89 84 85 88 91 95 91 77 68 72 80 84 82
59 55 56 57 66 74 85 94 80 69 70 55 60 71 64 63 76 90 95 89 93 92 83 77 87 91 92 92 97 97 90 89 93 94 86 79 80 82 84 86 94 96 95
53 60 61 65 69 73 82 90 85 82 59 63 70 64 66 74 85 86 94 89 85 79 82 93 90 96 97 98 96 98 93 86 84 88 92 98 98 100 100 100 100 98 93
62 63 63 69 79 79 81 68 64 57 60 69 65 62 64 69 68 80 84 90 91 97 95 91 94 96 99 98 98 97 99 97 90 86 83 76 70 66 65 66 76 88 85
60 62 65 63 65 64 65 64 54 63 68 66 66 66 68 70 68 80 83 90 96 99 97 97 96 100 99 94 95 94 96 96 97 98 93 90 89 88 86 86 85 86 93
60 65 64 62 61 54 51 52 60 62 66 70 68 69 73 72 67 84 88 86 87 96 100 98 98 97 99 98 96 98 97 93 96 97 97 96 96 95 93 93 93 98 100
64 69 69 69 65 63 56 58 64 68 71 72 70 76 77 75 68 83 91 93 92 97 97 98 97 98 100 94 97 96 96 95 95 94 96 96 97 98 98 98 97 99 99
68 68 73 74 68 68 64 66 70 73 75 76 77 82 81 77 74 92 94 91 95 85 82 87 89 87 92 95 94 95 96 96 97 97 96 96 96 96 97 98 98 99 99
71 69 70 74 77 73 71 78 79 73 78 80 81 86 86 81 84 96 87 86 88 82 78 84 92 88 96 96 95 96 95 96 96 96 96 96 96 96 96 97 97 95 97
81 74 73 71 83 82 83 84 75 72 82 86 84 90 88 84 95 87 89 84 79 83 80 95 98 96 99 100 100 100 96 98 97 97 96 96 97 97 97 92 90 96 98
98 82 78 76 83 87 79 77 74 76 73 75 80 88 92 87 86 85 89 85 82 76 81 95 98 97 99 100 100 100 100 96 95 96 96 96 96 98 99 98 96 92 96
98 87 79 81 78 74 76 73 83 87 86 81 78 86 89 90 81 84 91 78 80 76 76 87 100 99 94 100 100 100 98 75 84 92 95 96 96 98 98 99 100 95 94
90 80 80 77 72 74 75 78 89 77 85 91 81 90 92 94 75 71 76 86 85 84 85 81 90 97 90 87 94 90 90 60 68 89 94 95 95 97 98 99 97 85 80
80 85 81 76 77 76 74 87 92 87 86 78 83 90 93 97 84 82 82 89 88 85 87 90 82 90 88 75 85 83 77 49 47 73 92 95 94 95 96 98 96 94 88
80 82 82 83 86 85 86 76 86 94 78 83 93 98 90 94 90 93 91 86 86 84 83 89 90 82 90 82 75 64 47 41 39 45 86 95 95 93 96 85 95 83 80
85 85 86 80 74 74 75 77 90 88 82 85 86 87 92 92 96 97 95 87 86 86 84 86 91 85 84 86 81 90 69 38 33 37 74 95 93 86 92 83 90 80 72
98 93 86 76 77 74 76 78 88 92 83 92 82 92 96 98 97 95 95 87 86 88 90 88 90 92 82 82 78 92 88 45 35 40 80 94 93 90 85 85 89 85 75
99 89 83 72 76 74 76 82 87 85 91 86 83 85 90 92 95 92 94 88 86 86 88 84 87 89 87 81 73 89 80 35 31 43 90 89 85 87 75 84 81 81 77
99 89 86 80 75 75 81 84 91 83 83 93 92 82 89 95 98 95 98 95 92 92 88 86 88 87 91 85 73 86 68 33 29 47 83 88 80 75 74 82 79 75 75
100 96 95 97 88 85 88 75 77 79 86 82 74 76 85 86 83 88 84 87 90 92 91 87 88 87 92 84 87 89 64 32 29 41 71 84 88 57 84 79 64 80 77

GFSGL_925_rhum_021.txt.gz
RH
47 51 53 49 45 48 50 58 65 60 58 63 68 62 51 40 40 40 40 40 45 52 52 55 59 60 59 56 52 52 58 66 87 77 71 63 60 52 49 46 44 42 42
44 47 34 32 38 58 56 60 60 66 66 66 64 62 47 42 42 40 42 49 49 53 62 64 60 60 56 51 56 68 76 77 83 80 76 66 59 57 55 52 46 36 43
30 28 27 29 35 50 54 50 52 56 61 67 77 76 49 41 42 43 48 50 54 64 64 64 66 66 63 60 67 75 83 90 91 91 85 74 66 61 58 50 43 44 52
26 27 31 41 44 47 50 53 54 63 74 81 71 56 48 46 45 52 53 60 67 67 69 80 80 76 72 77 74 72 86 94 99 99 97 88 76 66 63 56 55 54 51
27 32 41 49 51 53 50 55 78 87 96 78 71 50 54 53 55 57 67 72 75 82 87 88 85 88 83 78 74 79 86 93 94 97 97 96 92 77 68 60 65 64 56
32 41 50 54 54 51 56 76 83 95 87 64 66 51 54 60 65 71 90 88 93 94 98 97 91 85 82 80 84 86 87 92 94 95 92 92 96 92 73 70 72 78 86
41 53 56 60 58 56 64 84 94 99 90 63 59 59 67 64 69 82 92 87 87 94 94 82 84 85 89 94 93 91 95 98 97 97 100 96 93 78 76 82 80 81 85
54 59 64 62 62 70 80 82 85 68 82 70 65 68 65 68 74 81 92 87 86 81 78 88 95 97 96 95 97 96 83 84 88 88 96 96 93 87 88 91 91 92 96
58 63 60 62 69 72 85 82 72 80 82 67 69 66 62 62 63 81 85 85 86 80 90 89 95 96 98 99 97 97 96 88 82 92 92 94 97 96 100 99 97 97 93
58 57 60 68 65 67 68 74 68 59 68 72 64 64 64 66 67 83 85 87 88 99 90 91 97 96 98 95 96 97 97 91 92 89 88 83 81 74 69 85 92 98 96
56 58 64 64 63 61 57 60 60 67 69 66 67 66 70 74 68 86 87 86 91 97 100 96 98 97 96 98 98 96 98 97 97 97 96 95 93 94 90 85 75 74 90
60 64 68 68 69 60 54 54 64 66 66 69 69 71 77 76 69 79 94 91 89 97 92 93 97 93 96 98 97 99 99 95 95 94 94 95 96 95 95 96 96 98 96
66 70 72 73 70 67 61 63 68 69 72 73 73 81 80 79 72 83 92 96 93 89 84 95 94 92 94 93 100 100 92 95 96 96 97 96 97 97 97 97 98 98 98
73 76 72 68 72 72 71 70 71 74 75 78 80 84 85 81 76 89 96 90 81 92 73 76 80 75 77 90 85 91 94 97 97 98 98 96 96 96 96 97 97 98 98
76 80 92 76 73 74 71 76 83 76 76 82 85 86 89 86 82 97 88 88 81 86 72 77 85 85 87 97 90 90 91 92 97 97 98 96 96 96 96 96 97 98 98
87 92 98 97 78 82 84 88 83 77 84 88 86 85 88 88 90 88 89 88 85 72 74 89 93 93 94 100 100 100 96 84 94 96 96 96 96 97 96 96 96 97 97
87 92 99 98 94 90 90 84 75 76 79 77 76 81 91 93 93 86 89 85 79 76 72 87 92 95 92 100 100 99 93 66 82 95 96 96 96 96 96 96 96 96 96
90 93 99 95 95 97 86 82 78 81 87 84 79 82 88 90 91 85 88 76 78 79 84 80 90 91 86 90 96 94 78 50 77 93 94 95 96 97 96 98 96 89 82
95 92 90 89 84 86 81 82 79 88 77 87 88 84 89 94 94 81 80 80 87 84 86 90 84 88 87 72 82 70 67 44 50 83 94 94 95 95 96 98 95 91 84
100 98 97 92 86 81 89 87 87 97 88 86 80 82 93 98 92 90 91 89 87 88 85 87 91 84 86 78 66 62 46 39 38 51 91 93 92 92 97 94 97 87 82
99 100 98 95 85 86 88 93 96 87 86 73 77 84 95 100 92 96 95 96 91 88 88 84 89 90 83 84 72 76 65 42 37 39 78 91 91 83 93 87 94 80 73
99 99 99 97 80 79 76 75 88 85 91 88 79 82 86 98 98 96 97 95 89 88 91 91 90 93 86 83 74 79 79 44 32 33 66 86 86 80 87 85 88 82 74
99 100 99 97 92 82 79 76 76 78 84 89 87 83 82 91 96 96 93 92 87 86 89 92 89 90 91 84 74 78 80 45 32 33 74 85 80 82 76 85 84 82 77
100 100 99 98 90 78 76 79 76 83 90 87 86 91 86 86 91 94 95 95 90 85 88 89 87 88 90 89 81 72 80 45 32 35 76 87 83 74 76 82 76 77 74
100 100 99 98 94 87 81 76 76 84 86 82 83 89 96 84 87 86 89 88 92 90 88 90 88 90 87 91 86 82 86 52 32 34 60 80 89 67 82 71 66 77 75
100 99 99 98 96 92 97 96 89 89 81 79 82 85 78 76 81 82 83 84 84 88 88 91 88 90 84 89 86 90 86 59 34 31 45 65 82 63 74 87 74 82 83

GFSGL_925_rhum_024.txt.gz
RH
42 47 47 32 25 22 32 56 58 58 56 56 64 72 65 65 70 49 43 43 47 54 56 56 60 61 60 60 58 53 54 69 84 76 76 74 62 65 64 52 51 50 45
46 32 27 25 29 39 49 51 49 46 48 69 74 69 73 78 62 59 51 50 56 59 60 65 64 65 70 68 67 64 72 75 88 88 86 86 82 69 63 61 58 56 47
27 26 27 34 38 38 39 41 41 50 62 71 77 80 74 58 53 50 53 56 58 65 68 69 75 85 86 80 79 80 83 82 87 98 91 92 92 81 74 63 61 53 48
26 29 33 39 44 45 46 46 48 68 84 89 92 89 71 54 56 56 58 62 69 73 79 88 92 94 91 89 94 95 84 82 88 87 86 86 98 81 82 79 65 55 52
28 32 44 54 49 49 51 52 61 82 93 95 65 65 54 56 57 61 68 72 79 86 86 88 95 95 87 84 81 86 88 93 95 93 89 83 84 92 91 90 92 64 62
33 45 55 50 50 55 60 66 75 93 96 92 97 58 59 62 67 68 71 80 80 78 80 79 81 85 84 85 87 86 90 97 98 97 90 88 84 80 98 97 97 88 78
35 50 50 53 59 63 74 79 82 83 93 74 71 66 66 65 63 66 76 76 79 82 82 82 91 85 90 96 96 94 92 94 95 95 97 93 97 92 89 90 94 92 87
44 49 54 60 65 69 65 77 84 80 77 90 71 71 66 62 63 68 79 80 81 78 80 88 97 98 94 94 98 94 92 88 91 95 91 94 94 95 97 98 95 96 94
48 56 58 61 67 65 63 64 76 73 73 74 75 66 63 62 63 67 85 84 81 81 86 86 95 91 94 95 95 99 94 95 94 97 96 94 92 94 95 97 98 96 90
54 57 60 60 66 64 64 62 70 80 66 76 66 66 65 66 66 78 88 89 85 95 93 93 92 92 93 95 96 96 98 94 99 97 98 93 90 86 84 87 85 98 98
59 61 62 64 67 68 63 56 61 68 74 68 67 67 68 72 68 73 92 90 93 99 89 93 94 97 93 88 96 95 98 96 99 99 99 97 96 96 93 91 88 78 92
66 66 69 70 69 70 69 62 63 74 69 69 70 69 75 76 72 75 96 93 91 91 82 86 95 90 87 90 94 98 100 92 94 95 96 98 98 98 97 97 95 95 93
72 68 76 75 75 73 72 67 70 71 71 71 73 76 82 81 74 80 92 98 84 89 86 89 94 90 76 78 98 99 89 94 100 100 100 100 99 97 96 97 97 98 97
75 69 78 80 87 74 74 74 74 73 77 76 79 82 85 87 79 82 96 94 82 84 69 76 74 67 64 75 76 81 82 92 99 99 100 96 96 96 96 97 97 98 98
81 76 84 92 99 85 74 72 75 83 87 80 82 88 88 88 82 89 91 90 84 86 53 68 74 75 70 88 84 84 68 67 92 95 96 97 96 95 96 96 97 97 97
98 94 87 95 99 97 85 81 86 85 82 89 93 86 86 89 85 96 87 90 84 75 59 76 85 84 79 90 97 90 69 59 87 96 95 98 100 99 100 96 93 98 99
90 95 97 98 99 98 96 95 92 81 75 82 80 77 82 88 93 94 88 82 75 74 78 79 81 89 86 78 88 82 83 48 78 95 96 96 96 95 96 100 96 88 92
90 95 98 97 98 98 97 98 97 93 84 81 78 83 80 98 100 94 90 82 77 77 83 87 86 82 84 76 78 70 54 38 42 84 93 93 95 96 98 99 98 95 91
96 99 99 98 96 95 93 97 97 89 89 94 81 83 82 90 99 98 92 86 87 82 82 84 88 87 82 82 71 64 53 39 38 52 92 93 92 95 94 95 94 81 79
99 99 99 100 98 97 92 89 94 96 97 97 88 78 80 95 97 92 95 95 95 89 86 85 82 88 87 82 74 76 66 43 34 35 66 86 88 85 95 93 97 90 79
89 100 99 99 98 97 91 89 93 95 98 95 80 71 83 96 94 98 92 94 95 94 88 89 86 88 90 84 79 72 76 56 38 35 56 78 82 80 84 88 93 87 79
85 100 99 100 100 98 97 78 82 82 90 93 90 86 84 89 89 91 94 92 92 94 87 89 91 89 87 88 82 70 72 58 34 30 48 80 74 74 73 84 84 84 80
82 96 100 99 98 98 97 89 81 77 80 80 83 85 87 86 84 90 91 92 92 89 83 86 88 89 86 90 88 75 70 68 39 30 39 76 82 71 74 81 81 79 77
82 99 100 99 98 98 98 94 81 79 80 80 86 88 83 82 88 83 85 87 91 88 86 86 87 87 85 92 90 86 76 81 49 32 37 65 76 79 68 75 64 76 74
99 100 100 99 99 98 97 96 91 84 78 78 82 85 85 82 91 94 80 85 90 90 87 88 87 87 86 90 88 88 85 88 58 35 36 54 72 82 64 88 75 76 77
100 98 99 99 99 98 98 98 97 96 97 97 96 92 82 85 84 79 74 80 82 83 82 88 89 89 86 89 85 88 88 87 64 37 34 41 56 73 66 81 88 78 80

GFSGL_925_rhum_030.txt.gz
RH
44 48 45 37 37 38 38 39 42 45 44 44 49 53 54 54 59 61 66 65 58 57 54 56 56 54 50 47 46 46 45 45 45 43 42 42 44 45 45 52 54 52 46
41 38 36 34 36 37 39 42 46 49 50 54 60 61 58 60 66 75 68 57 60 57 54 55 54 50 50 49 46 44 44 48 54 54 49 51 49 48 48 48 47 46 47
32 30 30 34 37 38 42 48 52 52 54 61 60 67 70 72 73 62 61 67 63 59 61 60 57 56 53 49 49 49 50 58 62 65 61 55 52 49 52 52 67 69 54
29 27 30 37 41 46 51 53 54 57 62 62 63 69 70 64 65 62 61 61 62 59 60 58 56 52 52 56 58 55 55 60 61 60 58 57 57 54 53 49 47 55 62
29 31 33 41 51 53 56 56 56 63 64 63 66 76 77 70 62 69 65 61 58 56 52 50 47 57 71 76 72 66 68 68 70 66 63 59 53 49 60 50 52 48 44
32 34 35 46 53 53 55 56 57 59 62 63 69 67 69 65 79 64 61 59 57 52 48 46 50 56 58 72 81 79 79 75 85 80 76 68 61 52 53 71 54 65 60
34 35 42 52 52 51 52 53 54 58 64 65 69 71 69 72 69 59 57 58 56 52 53 53 54 53 60 62 70 79 91 83 96 79 73 70 79 70 65 65 53 54 64
34 38 47 51 50 50 53 56 57 58 60 63 65 68 69 69 63 60 58 62 62 61 60 60 59 56 56 79 80 81 70 64 58 65 73 73 70 71 80 82 72 65 62
36 41 44 48 51 51 53 58 62 58 59 60 65 67 69 65 68 62 63 68 70 70 64 62 64 59 71 87 79 69 62 56 62 69 75 78 81 85 82 80 72 68 69
39 43 47 52 54 53 59 63 62 60 58 60 64 70 70 69 76 65 66 74 80 73 65 63 60 69 85 85 78 74 76 74 66 70 72 66 64 65 78 87 81 75 63
48 53 53 52 54 57 62 62 61 59 62 70 79 74 73 73 74 74 66 86 80 75 69 64 62 78 82 84 85 79 83 84 80 79 78 74 70 70 74 77 92 96 81
56 55 50 53 61 60 63 62 61 62 65 72 90 91 74 83 84 82 75 72 82 85 78 72 78 75 84 81 83 89 90 92 80 85 86 82 80 85 89 96 99 99 98
55 54 57 63 64 64 62 62 62 62 63 65 65 68 68 76 81 87 80 76 88 92 84 82 80 83 74 64 69 83 76 74 82 84 84 82 86 88 94 98 98 98 99
61 61 61 64 64 64 60 69 68 64 66 66 64 66 70 76 76 78 81 87 92 87 81 76 81 69 67 61 64 63 66 65 82 88 87 87 85 88 88 93 95 97 98
64 66 67 68 66 63 63 68 71 70 69 70 71 75 76 89 92 87 79 83 85 81 80 81 72 72 64 55 57 60 62 58 62 83 85 84 84 81 84 89 88 89 92
72 72 69 72 68 70 70 70 76 79 75 77 80 79 89 90 84 83 86 92 93 89 80 74 73 79 77 66 62 60 59 60 58 65 75 75 81 86 84 85 84 85 88
78 74 71 72 73 72 73 81 83 78 93 86 88 84 77 80 89 84 91 99 94 92 84 73 77 78 78 68 62 60 58 63 71 62 69 74 75 74 84 83 80 78 76
80 74 76 78 88 92 96 94 90 96 88 87 97 88 78 78 81 87 89 98 89 94 87 76 76 78 76 66 62 62 65 73 70 67 70 78 80 75 69 69 79 81 74
74 74 82 93 94 89 95 96 95 98 95 90 87 93 91 82 79 86 94 98 84 80 74 70 74 78 77 73 77 83 84 82 84 79 75 77 80 78 71 68 70 70 68
72 76 80 78 79 83 97 98 95 95 94 91 88 80 75 95 98 91 94 94 93 89 80 77 75 76 82 83 86 89 87 82 79 71 71 78 80 79 73 72 70 68 64
74 76 78 82 84 78 84 89 87 92 97 93 84 86 86 84 88 83 91 98 96 92 86 87 83 85 87 91 88 87 87 88 85 80 75 74 83 80 73 72 72 68 63
96 96 96 98 97 87 90 90 96 97 96 96 87 82 83 97 94 87 86 91 93 92 91 91 92 85 86 87 86 92 91 90 91 90 82 80 82 80 76 72 70 71 67
99 98 99 98 94 90 93 98 96 97 97 98 94 86 83 95 95 90 91 90 90 93 95 100 100 99 96 99 100 98 94 88 90 100 86 83 82 80 80 74 71 70 71
99 96 99 99 98 96 94 97 96 97 97 98 98 97 96 94 95 94 92 89 89 87 92 100 100 100 100 100 100 100 100 99 100 100 85 85 83 80 79 72 72 75 74
99 97 96 96 98 97 96 93 92 95 93 95 97 98 98 98 98 97 98 98 96 97 98 100 100 100 100 98 98 100 100 87 79 99 98 88 90 91 87 78 78 75 76
99 95 91 96 97 97 97 97 96 95 94 94 94 94 95 97 98 97 98 98 98 97 97 99 100 94 99 90 81 85 84 83 80 79 83 84 86 82 81 80 79 78 74

GFSGL_925_rhum_033.txt.gz
RH
39 45 44 40 35 36 36 36 36 40 41 40 41 45 47 45 44 56 59 67 62 60 56 62 65 62 60 54 42 40 39 37 40 39 39 43 48 50 51 50 48 48 46
41 41 45 35 31 33 34 35 39 43 44 41 45 48 47 52 61 66 62 58 62 62 64 64 58 53 45 42 42 39 40 40 41 42 46 52 55 54 52 50 49 47 51
43 39 32 31 32 34 33 37 42 44 43 45 48 48 51 54 59 62 60 63 63 63 61 60 47 45 46 44 46 47 46 44 46 55 59 57 54 50 50 50 48 48 50
34 34 26 29 35 34 37 42 45 46 46 49 50 50 55 56 56 59 61 58 63 58 48 46 47 47 46 56 55 55 52 53 55 59 61 55 58 59 61 53 58 55 51
43 29 27 32 36 37 42 46 46 47 50 51 48 54 61 63 59 66 61 57 48 44 45 45 43 45 50 57 64 61 64 66 68 64 63 71 70 60 57 54 51 54 60
36 29 32 32 34 38 43 47 45 45 47 49 50 55 57 57 62 64 59 60 54 45 45 45 46 46 47 53 60 77 78 71 78 87 68 73 63 55 71 77 75 66 56
29 31 32 32 38 40 41 40 42 46 50 50 53 59 66 66 78 66 58 62 56 50 52 52 50 46 51 55 61 64 71 66 68 73 76 81 84 68 67 69 62 75 70
31 31 30 36 39 40 40 41 44 48 50 51 54 61 68 65 76 65 59 66 55 56 57 55 52 53 55 74 72 69 60 53 49 53 61 66 65 63 64 65 68 68 63
31 29 31 34 38 40 40 41 45 51 51 52 52 63 63 63 67 64 61 65 63 62 62 55 58 58 59 65 72 72 64 57 53 53 61 73 74 77 78 80 86 70 74
29 32 35 35 40 41 42 45 50 53 51 50 51 55 58 65 71 70 67 73 74 70 62 58 58 63 68 82 80 77 74 65 60 62 71 71 67 74 74 92 91 94 78
30 38 40 40 42 42 45 49 54 51 53 60 68 69 65 73 70 78 74 77 78 75 70 63 60 74 75 78 82 79 83 81 76 80 79 75 78 75 74 76 84 94 95
49 45 43 40 41 45 52 55 53 53 55 63 71 84 77 81 78 81 80 74 76 84 80 72 77 75 75 81 76 68 67 83 73 81 84 80 81 81 85 86 96 98 97
46 46 46 46 50 54 53 52 52 54 58 65 71 96 87 76 80 92 84 80 74 91 83 81 77 85 78 70 58 62 71 66 66 72 85 82 84 83 87 89 88 94 96
52 49 50 53 55 56 57 54 51 63 71 72 77 78 72 71 71 85 96 97 93 96 92 88 83 76 71 63 66 60 63 64 62 64 72 78 85 83 83 86 94 89 91
50 55 59 62 62 58 55 52 57 66 76 80 86 85 82 83 73 78 92 93 94 96 84 83 76 71 71 66 62 62 62 62 59 60 66 67 62 70 83 83 89 87 88
64 63 65 68 67 64 62 62 67 69 74 75 72 72 80 88 82 85 84 75 76 89 85 76 71 81 78 78 67 63 64 64 65 68 65 66 66 65 65 79 81 83 83
70 68 70 66 64 64 68 72 75 71 76 85 86 82 77 80 86 88 90 85 96 95 91 74 73 80 79 70 62 61 61 64 76 67 68 70 73 71 68 64 70 76 74
75 73 72 66 68 76 79 80 84 88 89 86 91 92 92 89 88 78 93 100 97 98 84 73 70 75 78 68 62 63 69 77 78 76 75 76 78 74 70 63 62 65 62
70 68 69 76 83 82 83 88 87 89 90 88 87 89 94 93 82 81 86 94 84 87 87 91 77 72 70 73 72 85 92 87 86 88 80 78 80 77 71 67 68 66 63
58 61 71 75 79 80 86 85 87 88 92 89 90 92 96 99 100 97 90 89 92 89 90 88 76 67 73 78 86 90 89 92 89 86 78 80 81 81 74 69 69 68 61
63 68 75 85 88 90 94 98 89 89 88 85 88 93 97 90 89 93 93 92 95 90 88 90 91 85 89 90 89 88 90 87 89 89 83 80 83 87 83 73 68 66 64
75 84 93 94 97 99 96 97 95 84 86 88 89 93 98 96 88 86 88 90 88 88 92 91 90 92 91 90 86 91 89 90 93 91 93 86 82 84 86 80 73 69 66
86 97 99 99 99 96 95 98 95 93 95 93 93 92 98 98 95 90 88 88 90 93 90 92 93 90 92 92 92 90 94 89 90 94 91 88 82 82 83 82 73 71 70
86 92 98 99 96 89 89 94 98 98 98 93 94 93 98 99 98 97 96 96 94 91 95 96 95 92 92 94 96 89 94 92 97 94 100 94 85 80 80 75 72 74 72
100 100 98 98 95 91 94 96 98 97 97 96 92 95 96 95 97 98 97 98 98 98 97 98 98 98 90 94 98 90 94 94 98 98 100 99 91 90 89 80 78 76 72
99 100 99 98 93 94 98 97 98 98 98 97 97 96 87 86 89 90 88 91 96 99 99 99 98 97 96 96 96 97 98 98 91 78 84 94 90 87 84 81 78 78 71

GFSGL_925_rhum_036.txt.gz
RH
41 42 45 46 41 40 39 37 37 38 42 43 42 42 45 47 50 56 61 64 62 63 64 64 66 65 62 58 55 50 47 48 54 49 45 46 52 55 56 58 56 53 52
39 44 46 42 42 37 35 35 36 40 44 44 42 44 48 49 52 54 62 64 62 62 63 64 61 57 52 49 48 51 55 54 52 54 54 57 58 56 54 54 54 55 53
40 43 45 43 34 34 34 33 37 42 45 44 45 48 49 52 52 55 59 62 64 64 64 61 57 48 48 48 54 55 56 58 58 62 62 62 63 58 61 66 65 65 62
40 44 38 38 36 35 35 36 42 45 46 46 49 50 51 57 58 58 61 64 64 56 50 47 46 46 47 49 51 55 59 62 65 70 70 68 66 70 66 62 65 71 63
43 39 44 33 33 37 37 42 46 47 47 48 50 49 53 58 60 63 63 60 59 55 50 46 45 46 46 47 50 56 67 74 75 73 75 76 71 63 62 77 87 93 71
45 42 48 33 34 35 38 43 46 46 43 46 49 50 55 57 58 59 56 54 58 58 52 50 50 50 46 51 66 67 69 71 75 86 86 81 78 82 90 75 74 73 73
41 38 33 36 36 37 41 41 42 41 46 49 51 52 58 63 70 70 67 56 56 58 55 55 56 52 54 56 57 58 53 70 65 59 70 88 95 75 70 73 74 76 76
35 38 36 32 36 38 42 44 41 42 47 51 52 52 61 65 70 72 66 58 59 61 59 60 58 55 59 58 59 56 71 70 63 60 61 62 65 70 77 81 85 88 86
35 38 32 32 37 46 42 42 43 45 49 52 52 52 60 68 67 72 66 63 64 69 67 65 60 59 60 62 64 62 80 74 70 64 63 70 75 74 74 90 98 96 90
43 44 42 44 50 46 43 43 44 48 52 52 54 55 61 66 81 70 68 69 68 76 73 68 63 63 66 75 70 76 85 86 77 64 79 86 79 84 79 81 86 92 94
48 47 49 59 52 42 41 44 48 52 54 54 58 62 67 68 75 76 74 73 71 80 82 75 71 79 79 68 70 75 81 78 67 83 82 83 88 83 78 72 82 95 98
57 58 54 55 48 45 47 51 54 57 56 58 63 68 76 77 75 76 74 74 73 72 74 83 81 82 72 74 72 66 67 66 78 71 72 82 84 88 89 84 88 87 92
53 61 59 55 52 51 53 55 56 54 55 62 67 77 86 85 76 81 83 86 80 76 72 78 84 80 84 78 71 61 62 70 73 65 70 73 76 79 81 86 80 82 80
71 64 55 53 55 57 60 58 57 57 61 68 73 83 79 79 83 88 90 91 88 83 77 87 96 76 75 76 71 66 64 65 66 64 65 68 72 71 70 77 88 91 90
56 55 59 64 66 68 66 61 58 58 63 68 73 78 87 90 85 77 82 94 97 96 100 94 78 76 80 73 72 69 66 68 68 68 70 71 71 76 78 74 87 85 86
62 65 67 68 69 71 70 67 66 66 67 69 69 73 76 79 82 89 91 78 86 84 82 85 85 81 82 82 77 73 66 66 68 66 74 72 79 79 79 80 74 76 81
71 74 72 73 71 71 69 75 78 76 76 79 82 81 80 80 80 86 87 81 81 86 96 91 86 84 82 82 76 69 64 65 72 80 80 77 81 82 83 78 76 78 75
62 70 73 72 74 74 72 76 81 86 88 85 82 84 84 89 88 86 93 98 99 100 100 97 89 85 75 78 73 68 70 80 78 91 75 84 83 83 84 82 72 80 79
63 68 72 73 72 78 85 82 86 89 92 89 87 85 82 86 92 95 94 98 99 98 98 100 86 80 83 80 69 73 84 80 82 80 82 90 80 88 81 84 75 71 72
68 64 63 66 74 95 90 86 94 94 91 89 88 93 86 92 100 99 97 95 100 97 91 94 96 86 89 84 78 83 87 78 85 94 95 86 83 85 80 92 80 73 69
73 76 76 76 82 86 91 94 96 100 93 97 87 87 86 92 99 98 98 98 98 98 95 91 91 82 68 80 84 85 75 89 83 83 86 81 90 75 88 88 84 79 72
86 85 85 82 82 93 98 98 96 93 91 99 92 87 88 89 100 99 98 97 97 98 92 90 94 92 80 81 88 88 82 84 86 91 84 89 89 82 88 86 88 78 75
90 94 98 98 97 95 93 98 90 89 91 97 100 99 96 91 99 99 98 96 96 96 97 96 97 99 92 91 85 82 87 92 82 85 86 89 86 86 91 77 84 77 77
83 87 95 99 98 98 100 97 95 93 95 100 99 98 96 95 97 98 99 98 98 97 97 97 97 97 98 97 95 88 90 84 86 96 93 86 88 87 86 85 78 78 76
90 91 93 98 97 97 99 98 97 98 96 96 97 98 98 98 94 88 85 96 98 99 98 98 98 97 97 97 97 96 92 93 87 96 88 86 85 90 89 74 83 80 78
98 98 98 99 99 98 98 96 96 96 96 96 95 96 96 97 96 98 94 86 90 90 92 99 99 99 98 98 98 97 96 96 94 93 91 92 89 90 87 91 88 80 79

GFSGL_925_rhum_039.txt.gz
RH
50 42 42 44 46 40 40 40 41 47 41 42 46 43 42 46 53 51 53 55 65 64 63 63 65 63 60 56 50 49 53 54 63 62 60 61 59 59 56 54 57 55 61
43 44 48 48 42 42 40 40 44 39 41 46 45 44 45 50 51 51 54 60 63 64 64 63 63 60 49 48 49 52 53 50 59 68 66 66 66 63 62 62 66 65 62
42 43 47 45 41 42 42 50 40 39 43 45 45 46 49 53 55 54 57 59 65 65 62 54 53 48 47 49 49 47 47 50 57 65 72 71 71 65 69 68 64 65 71
45 45 43 43 43 46 47 53 42 44 46 48 47 48 50 54 55 52 57 63 66 59 52 48 48 47 46 47 47 48 53 61 67 71 77 76 77 75 74 70 86 77 75
42 44 43 45 44 46 48 50 44 50 49 48 45 48 49 55 56 56 60 63 58 56 52 48 50 50 50 49 52 60 69 70 71 78 82 82 83 81 83 95 80 73 72
42 42 42 48 60 44 49 45 46 45 44 42 46 49 50 56 57 56 58 57 54 53 51 55 54 55 53 54 60 62 64 64 66 83 85 85 77 93 92 76 77 81 80
44 42 43 42 47 52 52 42 42 44 46 44 45 50 52 57 60 63 66 66 58 55 54 59 60 59 56 57 58 57 57 50 58 70 69 77 74 69 71 80 85 89 91
40 45 50 59 46 44 43 43 45 47 45 49 52 52 52 56 65 67 73 71 59 58 60 65 64 62 60 61 60 62 64 32 46 75 76 68 72 80 85 88 91 98 96
47 47 47 47 52 52 55 51 59 54 50 48 52 52 52 57 67 70 74 71 70 63 64 68 69 64 62 63 65 71 55 33 55 76 65 74 78 91 90 97 96 94 90
59 62 63 66 56 46 61 60 50 50 50 51 55 55 56 58 64 70 78 85 68 68 66 75 73 68 66 72 77 69 58 54 70 68 72 67 72 81 76 78 83 99 96
70 70 56 49 47 66 56 51 52 52 52 52 55 60 61 61 64 70 72 71 72 73 69 72 73 78 83 83 75 66 59 68 73 73 77 65 74 75 75 75 79 92 99
60 54 49 60 66 62 55 52 52 54 56 57 61 64 68 69 71 75 77 77 76 74 69 68 66 89 86 71 68 65 64 68 66 76 72 66 71 68 73 73 72 74 82
54 64 66 58 59 57 55 56 58 58 58 58 65 63 68 76 81 82 83 80 80 82 80 72 71 80 76 70 71 74 75 69 68 75 68 68 66 69 72 67 70 78 75
61 59 60 59 56 57 60 63 65 63 62 63 67 68 68 78 84 91 94 91 91 94 84 78 76 83 80 70 79 73 72 66 67 70 71 66 72 76 72 69 80 87 86
59 62 59 59 62 66 69 68 67 67 67 66 66 68 71 75 76 86 97 98 95 86 86 87 99 99 76 69 86 75 71 70 69 70 70 73 73 82 75 76 82 85 88
61 57 56 59 68 70 68 69 71 71 68 67 67 76 79 81 80 86 86 88 95 99 100 99 97 86 78 76 85 77 67 73 68 69 72 82 78 83 80 84 78 76 90
58 57 59 63 65 68 69 73 77 66 67 70 69 69 73 79 84 98 98 98 98 98 96 92 87 84 76 77 88 80 70 70 68 74 79 83 78 85 84 85 84 76 83
71 67 67 66 66 70 73 75 78 75 84 83 74 73 77 80 82 84 92 99 99 99 98 95 90 84 76 75 86 78 72 72 76 74 70 71 86 86 87 81 89 80 77
78 76 76 78 80 80 86 93 100 100 99 92 87 86 81 81 82 80 86 99 98 99 96 99 94 86 83 77 75 79 76 74 78 72 72 82 94 84 88 76 94 83 75
85 85 83 88 90 91 87 99 100 100 100 99 99 93 82 89 96 95 99 100 98 98 96 95 94 90 85 82 82 94 88 78 80 73 81 96 91 86 84 81 94 90 78
83 88 91 89 88 96 96 93 94 100 100 100 89 80 83 98 98 100 98 100 100 97 95 89 89 90 92 89 88 77 96 86 81 76 87 89 84 84 78 89 91 90 79
92 85 84 86 85 87 91 90 98 95 96 93 91 89 88 99 99 98 99 100 97 96 96 90 88 84 84 83 84 77 87 87 79 74 82 84 81 90 77 92 89 82 83
74 87 96 97 95 94 97 97 97 98 98 94 94 97 100 100 99 96 98 98 99 98 97 98 99 97 93 91 91 84 79 81 81 74 79 85 84 90 80 93 84 79 80
100 99 100 100 97 97 98 98 96 98 98 98 99 98 99 100 98 97 90 84 97 99 98 98 97 97 97 96 96 95 94 89 84 78 82 82 87 86 81 86 87 79 80
100 100 100 100 99 98 97 98 98 96 96 96 96 95 91 89 92 96 95 97 98 96 100 98 98 98 98 98 98 97 95 96 97 94 87 87 92 86 82 91 85 78 79
92 100 95 100 100 100 99 98 97 97 97 96 97 98 100 99 98 97 97 94 95 95 98 94 97 98 100 100 100 98 98 99 97 96 96 95 89 77 80 83 82 92 81

GFSGL_925_rhum_042.txt.gz
RH
57 59 52 44 45 46 44 42 42 48 56 61 63 49 44 43 47 52 52 52 54 61 64 64 64 64 62 55 51 50 51 53 61 56 54 53 55 51 53 53 59 61 69
55 50 45 45 46 44 42 41 52 56 56 49 49 45 44 48 49 53 53 56 59 62 65 65 63 64 53 51 50 51 52 49 55 62 61 62 61 54 60 64 67 66 69
50 46 47 48 43 43 44 53 53 52 46 46 45 46 50 49 51 53 55 56 59 65 65 55 48 48 48 49 50 48 49 52 56 64 72 67 65 67 69 72 75 78 70
49 48 48 44 42 45 48 49 50 51 46 46 50 47 46 49 51 56 56 56 61 65 62 56 50 48 48 49 50 51 53 59 67 70 73 77 81 77 78 83 90 80 71
51 49 49 47 48 51 52 52 50 48 48 49 46 43 43 50 52 56 56 58 60 63 60 53 47 52 54 53 53 53 62 66 66 66 80 87 86 80 87 86 89 77 74
56 55 52 49 49 49 49 50 51 51 48 45 47 44 46 49 50 55 58 60 63 60 54 52 50 56 57 57 56 58 61 61 65 66 86 86 81 86 77 74 82 88 86
50 52 51 48 51 54 60 66 63 58 51 50 46 48 50 51 52 56 59 61 61 69 57 55 56 61 61 60 59 61 62 64 58 40 72 78 83 73 88 94 95 99 97
53 52 49 51 58 70 78 66 67 63 48 55 51 50 54 52 54 54 64 67 69 67 59 65 64 66 66 64 64 65 65 69 41 53 81 78 80 94 96 99 98 98 96
60 64 63 70 75 77 82 80 70 63 58 53 52 52 56 55 54 56 69 72 74 72 79 88 67 67 68 66 68 69 74 61 48 59 74 69 72 78 90 92 91 100 89
74 74 69 73 80 83 75 64 57 59 57 52 52 52 54 58 57 57 62 71 76 75 78 69 68 71 72 69 74 79 74 52 60 65 70 71 62 62 61 74 84 100 97
78 82 89 81 72 66 63 59 56 55 54 55 56 56 57 61 65 63 65 70 74 79 71 74 68 72 73 78 84 80 65 62 64 70 71 74 70 64 67 70 71 82 100
70 66 65 63 60 57 58 59 57 57 60 60 60 60 59 61 66 68 70 74 75 73 74 75 71 69 70 87 90 71 71 76 76 72 70 72 73 68 73 72 64 73 83
56 57 57 54 56 58 60 59 60 60 66 65 63 60 61 64 65 68 74 81 82 80 79 78 93 71 70 83 73 71 74 77 77 81 72 72 69 72 76 72 69 69 73
56 54 54 58 58 57 55 58 65 68 67 67 67 66 66 68 69 71 79 85 87 98 90 95 96 80 75 78 82 70 76 74 74 68 70 73 70 73 76 74 84 73 80
56 58 58 58 55 50 48 54 64 62 66 72 72 71 73 76 71 76 78 82 86 91 97 99 98 95 85 90 88 72 81 78 75 72 73 72 75 76 79 76 83 79 90
69 69 68 66 60 60 62 62 62 61 63 71 72 68 66 66 67 74 82 85 97 99 99 98 98 97 93 91 90 76 75 85 72 75 73 74 81 78 83 82 82 83 85
85 84 83 82 84 86 87 87 91 83 80 76 74 75 98 81 73 76 79 89 93 100 98 95 98 96 92 94 85 79 77 84 73 74 71 75 77 78 87 84 82 88 84
68 72 78 76 86 92 95 96 96 98 97 95 94 97 99 93 95 81 80 89 100 100 99 97 96 94 91 87 84 76 73 85 80 72 76 72 74 81 91 86 81 96 90
76 86 88 92 95 91 89 94 91 92 98 93 99 90 86 86 91 82 85 99 100 99 100 99 95 92 89 86 80 76 74 79 84 76 79 72 77 86 88 86 82 92 92
96 89 80 86 86 87 88 88 86 85 90 96 98 99 91 89 85 85 86 94 100 98 98 100 97 96 91 85 82 79 81 79 85 87 82 75 81 88 90 84 86 95 91
69 83 91 97 98 96 92 95 96 95 93 89 96 98 94 94 97 98 100 100 100 99 98 98 98 97 95 87 85 85 87 88 92 94 87 78 82 89 86 83 86 92 84
98 100 100 100 97 98 99 97 97 98 97 98 98 96 92 100 99 99 99 100 97 96 98 98 97 97 96 92 88 86 89 92 90 84 88 81 83 86 85 83 85 91 83
92 100 100 94 99 98 100 98 99 98 98 99 98 98 99 98 94 97 98 98 99 97 96 99 98 97 97 97 97 97 92 86 83 78 86 82 81 86 86 83 87 88 81
90 100 90 97 100 100 100 100 100 99 98 97 97 97 97 97 99 100 100 93 95 93 99 99 98 98 98 96 97 97 97 95 94 90 89 86 78 85 89 85 85 87 81
86 100 90 99 100 100 100 100 100 100 100 98 98 97 96 97 97 95 99 94 91 92 90 93 99 98 98 98 98 98 97 98 97 97 97 97 96 86 90 87 83 91 80
88 98 98 95 100 100 100 100 100 100 100 100 100 98 97 99 96 96 100 96 98 94 94 95 96 98 96 97 100 99 99 98 99 98 97 97 96 96 94 88 85 81 86

GFSGL_925_rhum_045.txt.gz
RH
80 72 69 69 65 62 60 49 48 62 63 52 62 63 54 46 45 49 53 53 54 56 58 64 65 65 64 62 57 53 52 54 63 55 52 52 56 58 47 52 55 58 64
69 63 62 59 56 54 52 53 56 51 49 61 58 55 47 45 48 49 53 54 56 55 56 64 65 64 64 56 53 54 54 53 53 59 58 60 62 54 48 62 59 64 69
72 61 59 58 56 54 50 48 49 58 59 56 52 48 47 48 47 50 52 54 56 55 55 62 63 54 51 49 50 55 51 52 55 65 71 69 62 58 66 69 72 68 66
69 67 66 60 54 52 48 50 57 52 49 48 47 52 45 48 48 50 52 55 57 58 60 63 58 55 51 47 49 51 52 54 59 68 69 69 69 67 79 85 86 82 78
65 65 60 53 52 55 54 54 52 51 51 54 55 60 51 45 48 51 53 55 58 60 64 64 59 52 48 52 55 55 53 61 66 66 70 74 80 76 86 84 83 82 84
68 63 58 54 53 54 56 57 58 63 69 74 79 70 53 50 51 51 53 56 58 63 64 65 76 65 56 56 57 58 60 62 63 70 68 77 76 86 81 86 94 97 84
66 65 58 56 58 65 67 67 75 84 87 86 78 58 53 51 50 53 54 57 60 64 64 66 71 56 60 64 63 65 63 64 67 71 55 59 84 80 91 99 98 99 97
64 62 64 68 71 75 84 87 90 88 86 67 57 50 52 51 52 56 56 56 63 64 64 73 81 65 88 66 67 66 66 66 72 58 52 68 78 87 90 96 100 94 95
75 73 70 76 83 87 92 96 91 77 59 53 54 53 52 52 52 54 58 59 68 68 74 86 70 87 70 69 71 69 70 71 72 51 73 81 77 73 71 81 78 100 91
66 77 86 96 97 93 89 69 61 60 55 54 55 55 56 57 57 58 61 62 70 71 73 79 82 78 70 70 73 72 75 79 62 59 65 67 70 72 67 66 76 99 98
84 86 85 71 67 66 64 62 59 58 58 58 60 59 58 59 58 58 63 69 71 70 72 75 81 79 73 71 75 75 81 78 65 68 70 72 70 72 69 71 74 74 96
64 61 61 60 57 55 57 58 60 60 62 62 61 62 62 61 60 59 65 70 69 74 76 78 81 77 78 72 72 79 87 81 81 82 84 78 74 73 70 73 72 73 75
56 55 53 54 54 56 58 58 61 59 62 65 70 69 62 64 65 65 66 68 72 83 76 82 91 89 78 87 69 80 89 88 86 87 82 76 70 73 73 73 71 72 65
58 59 62 64 63 64 64 59 58 57 59 68 77 78 72 68 70 70 71 74 75 84 92 96 94 98 96 95 86 82 84 79 79 81 77 73 73 73 75 75 78 79 83
75 79 80 80 80 79 78 81 80 76 77 81 83 82 84 82 72 67 65 69 77 82 85 100 100 100 97 97 96 93 84 84 78 83 78 75 75 74 78 77 79 84 89
73 69 69 67 65 70 80 81 79 81 80 82 82 83 83 94 97 89 99 94 79 86 100 100 98 99 100 99 97 96 89 89 76 85 82 78 76 78 78 81 80 85 91
62 72 76 80 90 96 98 94 89 78 78 77 87 88 90 93 92 100 99 98 94 99 100 98 100 100 97 97 97 96 92 86 76 76 87 76 74 81 77 83 84 87 89
74 77 81 79 87 96 94 95 95 92 90 82 77 82 88 82 88 98 100 100 99 100 100 99 95 99 100 97 97 96 92 86 76 88 87 76 76 78 77 82 87 91 95
61 71 82 88 93 96 99 98 93 91 92 93 91 88 83 88 90 96 90 98 100 96 97 99 100 99 99 98 96 95 89 81 74 81 87 76 81 78 81 83 88 87 93
75 82 90 92 100 99 94 90 95 95 92 96 94 93 97 98 98 97 93 96 100 100 99 100 100 97 97 97 96 96 88 84 84 82 86 86 88 81 86 85 87 91 90
95 94 91 94 95 97 100 100 99 98 98 99 98 99 99 100 98 97 97 95 96 99 100 98 98 99 97 97 97 97 89 85 82 82 79 87 95 90 86 88 86 88 90
80 98 94 87 99 100 100 100 100 100 100 99 98 98 94 98 98 98 98 96 97 98 98 98 99 98 97 97 97 97 96 90 84 86 88 91 94 93 91 88 87 85 88
83 98 82 79 87 93 100 97 100 100 100 100 100 99 99 97 98 96 98 96 95 94 95 96 99 99 97 97 97 97 97 94 85 79 86 90 93 95 92 88 86 84 88
81 99 88 83 90 94 96 100 100 100 100 100 100 100 100 99 98 97 96 96 95 92 93 95 94 98 99 97 97 97 97 97 97 96 90 87 87 95 92 91 87 83 86
79 81 91 92 94 94 93 100 99 100 100 100 100 100 100 100 100 98 97 96 96 94 93 94 96 96 96 97 98 97 97 98 97 97 97 97 95 96 92 91 88 85 88
83 83 84 98 91 85 86 100 100 99 100 100 100 100 100 100 100 100 99 98 98 95 92 92 94 96 96 97 97 98 98 98 97 97 97 97 97 97 96 95 91 86 87

GFSGL_925_rhum_048.txt.gz
RH
91 92 94 95 95 93 89 80 77 73 66 70 76 63 77 62 48 45 49 54 55 55 57 59 62 67 67 68 65 64 65 78 82 60 55 53 55 58 56 42 42 51 58
89 94 97 96 92 87 87 86 82 74 68 74 77 77 62 51 48 50 61 55 55 57 58 60 60 64 65 64 62 56 55 56 59 60 56 60 62 61 54 43 43 60 64
94 94 88 87 86 82 79 75 66 64 68 68 69 61 62 49 56 72 59 54 56 57 58 57 57 64 65 60 57 52 53 56 54 60 63 68 70 63 49 42 62 72 68
92 88 86 82 77 71 64 59 61 59 65 63 69 56 57 78 72 54 53 54 54 56 58 60 62 65 60 55 53 49 52 53 56 59 67 72 68 66 49 69 84 75 78
89 86 80 77 70 62 60 57 61 68 66 58 57 68 86 86 72 59 54 54 54 56 57 62 65 63 65 58 53 50 53 57 58 68 73 73 73 63 67 83 86 87 89
81 80 73 64 62 59 62 64 61 62 69 60 78 92 98 87 58 53 54 56 57 60 62 62 66 64 65 75 57 60 62 58 61 70 68 76 71 54 72 84 95 96 78
75 72 67 68 64 60 62 74 81 85 84 94 96 92 76 58 53 51 51 53 56 58 60 65 68 66 76 85 60 80 65 64 65 67 72 74 62 54 80 94 96 97 93
75 73 66 66 77 83 84 86 91 93 94 89 81 68 57 52 54 52 51 55 60 60 62 66 68 68 79 68 78 75 70 70 68 70 76 62 56 73 92 88 91 86 92
72 72 80 86 89 89 90 94 94 86 79 64 59 58 55 53 53 55 55 57 59 60 60 66 66 73 86 71 96 71 72 71 70 74 72 67 85 92 90 89 72 92 91
80 83 88 95 92 80 80 81 66 66 63 60 58 57 57 58 59 60 61 62 63 65 67 71 71 72 81 85 96 74 76 72 73 78 58 61 68 70 71 73 71 94 95
94 83 72 63 64 64 64 63 59 60 62 60 59 55 55 57 59 62 62 62 64 68 72 71 71 73 78 91 97 75 70 71 77 76 64 67 72 74 71 72 71 79 95
60 58 58 56 56 58 60 59 59 59 60 57 57 59 59 57 54 52 62 64 65 75 75 73 74 76 80 98 99 83 74 77 86 83 80 84 83 76 72 72 72 72 74
57 62 67 68 70 72 74 75 76 74 76 78 82 84 81 78 78 74 67 69 70 73 73 73 73 72 74 93 98 93 90 88 92 96 96 91 80 76 74 74 74 72 73
75 77 73 69 64 58 52 51 59 65 79 91 93 93 94 93 91 82 77 83 85 72 73 79 82 90 99 98 100 98 97 94 88 92 88 80 81 79 76 76 79 76 81
64 63 57 51 52 55 58 71 76 73 80 88 91 93 93 92 95 99 99 99 97 98 99 98 100 100 100 98 99 98 97 97 97 90 88 82 83 81 79 78 80 81 90
62 66 66 60 62 72 91 89 82 83 87 88 87 86 85 85 87 92 94 96 100 100 99 98 100 100 100 100 98 98 98 97 96 93 94 83 89 81 80 81 80 84 88
55 60 59 66 86 98 97 100 99 90 89 86 84 88 90 91 89 89 94 100 99 99 99 98 99 99 94 98 100 98 96 95 96 94 95 78 85 83 79 81 82 86 85
50 66 70 77 87 96 96 100 93 88 90 93 86 90 94 91 97 96 95 98 99 100 99 98 98 99 93 97 98 97 97 96 97 93 91 79 88 83 81 80 83 87 88
70 91 78 79 95 90 89 91 100 100 98 97 94 89 96 80 96 98 96 100 98 98 99 98 98 94 93 94 99 97 97 96 96 93 80 83 92 81 81 79 84 87 89
88 90 80 70 79 88 90 98 99 100 99 99 99 100 100 99 97 96 99 98 98 98 98 93 94 98 100 97 98 97 96 96 97 92 78 77 89 80 84 82 88 87 87
71 99 72 70 79 88 90 100 100 100 100 100 100 100 100 100 100 100 98 98 96 98 99 97 100 98 97 98 99 97 96 96 96 92 80 78 87 87 89 88 91 87 88
74 82 75 82 82 88 89 94 100 100 100 100 100 100 100 100 100 100 100 100 97 97 96 97 96 96 97 100 98 97 96 96 96 93 84 82 81 87 94 94 95 89 90
74 82 75 79 82 83 80 84 98 96 100 100 98 100 100 100 100 100 100 100 100 96 96 96 98 97 95 96 97 97 97 96 94 96 86 84 86 93 96 96 94 90 90
70 73 80 81 83 80 77 83 96 88 93 96 96 100 100 100 100 100 100 100 100 96 96 96 96 99 98 96 96 97 97 97 97 97 95 84 88 93 96 97 94 88 82
74 75 76 89 90 85 80 77 81 84 88 92 96 99 100 98 100 100 100 100 100 100 97 96 96 96 96 98 96 97 97 97 97 97 97 97 91 91 92 95 92 91 86
81 80 75 85 96 94 88 82 82 84 90 92 95 95 100 96 100 100 100 100 100 97 97 97 96 96 96 96 95 96 96 97 97 97 97 97 97 97 97 96 95 94 84

GFSGL_925_rhum_051.txt.gz
RH
93 98 98 94 98 100 100 100 99 90 83 84 78 76 70 88 81 54 51 64 57 54 56 60 66 70 68 71 76 74 68 67 66 51 52 53 57 57 56 59 58 51 50
88 86 95 100 100 100 100 100 99 91 83 75 74 76 84 67 56 69 77 65 67 70 66 71 70 70 74 73 72 68 64 60 60 48 44 50 58 58 62 62 52 50 58
97 100 100 100 100 100 100 99 94 89 81 74 76 80 78 70 77 78 70 74 75 67 65 71 70 72 72 69 72 67 63 60 58 55 49 51 60 62 59 56 48 56 56
100 100 100 100 99 97 94 91 89 84 76 77 78 76 84 70 74 78 79 73 64 62 57 61 70 73 71 68 71 66 62 60 55 54 54 52 57 57 61 50 46 47 51
99 97 97 94 87 79 74 71 72 71 74 77 75 69 67 68 80 91 83 78 71 68 60 59 63 63 64 67 65 65 64 63 54 59 56 54 55 53 50 45 53 53 56
94 93 84 77 72 68 69 71 70 68 81 72 79 71 77 94 98 88 72 73 69 68 68 68 65 62 66 69 63 63 86 62 63 70 58 57 55 58 57 55 59 61 56
82 81 75 68 66 65 68 76 87 87 82 81 86 99 98 93 71 60 56 59 72 71 71 71 71 67 65 71 68 83 84 66 76 72 71 65 66 66 52 59 61 62 62
75 75 74 74 83 86 89 93 92 94 96 93 97 96 88 67 58 57 55 56 67 67 70 69 74 72 75 74 76 86 74 78 86 74 72 70 71 67 61 72 75 76 67
82 85 86 87 90 90 90 88 82 84 92 87 78 66 69 62 56 57 59 69 72 70 71 68 70 74 74 68 81 98 79 85 74 71 71 70 75 59 85 78 74 67 68
89 98 95 86 77 71 66 70 68 71 69 67 63 58 56 54 50 49 52 64 82 75 72 74 64 67 69 70 86 100 99 86 73 72 77 78 74 75 84 78 73 73 68
80 73 65 61 58 60 61 62 65 71 67 62 60 61 63 64 66 66 68 71 82 82 79 78 80 66 69 73 75 92 99 95 85 74 72 67 61 65 70 72 70 72 73
66 61 64 65 66 68 71 76 76 79 80 79 78 79 75 79 78 64 59 72 81 96 96 84 80 68 70 75 81 88 88 98 91 86 84 78 73 75 73 71 73 77 76
69 78 77 69 63 60 61 60 56 58 62 68 67 68 66 70 72 81 90 89 84 92 97 98 94 83 78 87 82 86 100 100 99 97 89 81 79 78 81 88 86 84 84
74 72 66 60 55 56 56 60 60 67 68 68 69 72 76 76 76 78 88 89 88 96 96 100 99 98 98 100 100 100 99 99 99 98 94 84 88 94 93 87 87 84 82
67 62 59 60 62 60 64 70 71 74 82 82 80 80 90 92 93 100 99 100 99 99 100 99 100 100 99 100 100 100 100 100 99 100 98 94 95 90 90 87 90 84 79
55 58 69 70 72 71 67 64 79 85 87 88 90 93 92 96 94 94 96 97 94 98 100 99 98 98 99 98 95 94 99 100 99 99 99 98 94 90 88 89 88 86 76
60 66 67 72 73 76 75 72 68 72 85 91 91 91 92 96 96 94 95 100 93 97 100 98 98 99 98 99 93 92 95 98 99 99 98 99 98 94 96 88 88 86 78
74 63 76 79 83 80 79 80 81 81 82 78 82 89 94 96 95 95 98 93 90 88 98 98 98 99 97 92 94 96 96 98 99 99 99 100 100 95 93 89 85 84 79
72 77 84 86 85 87 86 86 83 84 83 80 79 78 90 96 94 95 98 98 97 94 96 95 98 98 97 97 98 96 97 99 98 99 99 100 100 94 94 87 84 85 86
77 88 82 83 84 85 85 87 84 86 83 85 84 89 93 94 92 93 96 99 98 97 98 97 96 98 99 98 98 98 98 100 100 100 100 99 100 99 95 90 92 88 84
82 82 74 83 86 87 89 89 89 90 88 89 90 97 100 100 96 95 95 97 100 100 100 100 98 100 99 96 96 98 100 100 100 100 99 99 100 100 98 93 94 93 85
86 86 87 89 91 94 90 90 95 95 91 91 92 92 100 100 97 96 96 100 100 100 100 100 100 100 100 98 98 100 99 99 99 99 99 98 99 98 100 99 99 98 90
81 75 90 90 92 93 95 92 96 96 94 96 97 97 99 100 100 100 100 100 100 100 100 100 100 100 100 98 100 100 100 100 98 97 98 98 100 98 100 100 100 100 94
71 74 90 97 100 96 98 98 98 94 98 98 100 100 100 100 100 100 100 100 100 100 100 100 100 100 100 98 100 100 100 100 96 98 97 97 99 100 100 100 100 100 97
73 78 89 99 100 100 100 99 99 100 100 100 100 100 100 100 100 100 100 100 100 100 100 100 100 100 100 99 97 98 99 96 97 97 98 97 97 100 100 100 100 100 98
85 81 82 83 100 100 100 100 100 100 100 100 100 100 100 100 100 100 100 100 100 100 100 100 98 98 97 97 95 95 97 97 96 96 98 97 99 99 100 100 100 100 99

GFSGL_925_rhum_054.txt.gz
RH
68 77 85 86 90 97 99 100 99 99 97 90 95 91 91 86 85 92 74 62 64 85 65 59 56 54 53 51 52 51 49 47 44 39 38 38 43 50 50 46 47 46 39
69 75 83 97 99 100 100 100 100 100 98 98 95 89 84 74 96 83 68 77 85 65 60 57 56 53 54 56 54 51 50 48 46 44 41 41 40 43 49 51 49 42 38
74 84 98 99 100 100 99 99 100 100 98 96 93 85 77 92 84 68 87 92 74 65 64 56 54 55 54 53 52 50 49 46 46 47 45 43 41 43 47 47 44 40 38
96 100 99 100 100 100 100 100 100 98 98 93 83 81 88 75 83 95 93 79 77 69 63 62 57 55 54 52 51 49 52 54 49 49 50 46 43 44 48 44 40 31 33
99 100 100 98 94 93 92 91 95 94 89 84 86 86 80 86 93 91 86 95 84 69 63 60 57 58 60 59 52 47 48 56 55 54 59 50 50 49 47 38 41 35 37
92 89 88 84 83 82 82 82 84 84 82 76 75 84 90 95 92 90 96 81 69 61 56 54 53 55 64 69 67 64 62 56 66 74 59 58 58 52 42 43 42 37 40
78 77 74 73 75 75 77 80 84 84 83 87 87 86 87 91 96 93 76 67 60 57 57 55 52 47 49 57 65 68 72 65 65 82 66 64 64 49 47 47 41 40 44
68 69 71 74 75 82 93 97 93 91 91 93 93 85 77 69 70 63 57 66 58 54 53 52 52 51 49 52 59 62 67 72 87 86 72 66 56 54 53 53 49 56 55
70 72 76 80 86 87 86 90 94 84 73 68 64 63 60 58 61 61 53 58 55 54 52 51 51 51 52 57 66 69 68 69 71 74 84 72 64 64 66 63 59 56 57
75 78 78 79 83 80 74 68 65 60 56 55 53 53 56 58 61 73 77 78 75 72 67 63 60 58 62 66 73 77 78 78 79 81 74 77 75 78 77 74 62 58 55
70 69 69 66 64 61 59 58 56 55 61 67 70 69 64 62 63 66 70 74 68 73 75 74 73 75 75 73 71 84 88 86 81 90 93 84 61 59 56 66 63 57 57
64 62 60 59 56 57 57 56 51 48 47 46 54 53 54 58 60 63 68 74 82 80 78 80 73 80 88 96 96 94 86 90 98 98 100 97 66 58 51 52 55 56 56
58 58 58 54 48 43 39 38 34 40 45 49 49 54 53 60 59 64 74 76 77 88 82 79 75 86 98 99 99 98 99 99 100 100 95 90 88 71 66 66 65 65 65
54 51 45 39 36 36 36 36 38 50 51 51 56 60 62 64 62 72 76 76 81 90 86 84 86 83 79 91 97 100 100 98 98 97 97 89 94 95 82 74 73 71 69
43 38 38 42 39 38 40 49 52 59 68 69 68 68 73 74 75 92 91 89 93 95 97 97 93 82 75 78 93 99 97 98 99 98 98 98 98 96 93 85 84 73 66
35 39 51 49 50 43 40 42 60 58 65 90 92 89 84 88 94 94 89 91 94 89 89 91 93 88 89 79 89 99 98 98 97 98 93 96 96 93 93 91 85 77 66
39 43 50 51 50 50 50 50 48 59 69 81 82 87 89 94 95 92 90 91 81 81 80 87 90 92 96 95 76 97 99 98 95 97 95 98 98 98 97 92 92 78 70
56 54 52 55 54 58 58 61 61 63 68 65 69 76 82 89 93 89 88 81 72 71 76 80 86 89 88 91 94 96 97 97 99 95 96 98 98 96 96 92 90 82 69
50 54 64 69 71 72 69 68 66 67 68 66 65 65 75 88 88 84 84 82 83 77 77 80 84 88 91 92 94 98 99 99 98 98 98 97 97 98 96 93 84 80 73
65 65 63 64 67 67 67 69 66 69 68 69 70 75 82 83 82 80 80 83 85 83 85 85 86 90 94 95 95 97 97 98 99 99 97 95 97 98 97 95 86 85 75
54 60 66 64 67 69 71 71 71 73 74 73 75 82 97 93 83 80 80 82 87 89 90 91 92 94 95 95 95 97 96 96 98 98 98 98 97 98 98 94 86 79 71
66 66 70 73 73 80 76 74 78 80 78 76 77 76 85 82 81 80 80 84 92 93 94 94 95 96 97 97 99 98 97 96 96 99 98 98 98 98 98 94 90 92 76
76 78 74 74 79 85 84 83 82 84 80 80 81 82 83 85 88 86 88 92 93 94 97 98 99 100 100 100 100 100 98 96 97 100 99 98 98 98 98 93 93 92 82
82 87 76 83 91 84 89 90 88 84 86 85 88 88 87 90 92 92 93 95 97 99 100 100 100 100 100 100 100 100 100 100 100 100 100 96 98 98 98 95 92 87 84
92 90 89 87 91 92 93 89 88 90 90 91 92 93 91 94 92 94 96 98 100 100 100 100 100 100 100 100 100 100 100 99 100 99 100 97 98 96 98 94 90 91 92
89 88 89 92 91 93 93 91 91 92 93 95 96 97 98 97 96 98 99 100 100 100 100 100 100 100 100 100 100 100 98 95 99 98 97 97 98 98 98 98 96 94 92

GFSGL_925_rhum_057.txt.gz
RH
58 65 74 85 91 92 96 96 94 100 99 100 98 95 98 99 98 94 88 80 82 80 78 83 79 60 57 53 50 48 46 44 44 39 36 35 36 38 39 44 47 47 46
55 63 77 84 90 97 99 100 100 100 100 100 99 100 100 96 89 93 87 77 79 80 86 83 69 60 57 55 54 52 49 45 44 44 40 38 38 38 39 42 47 42 43
55 82 96 95 93 97 100 100 100 100 100 100 100 100 98 93 100 92 74 83 88 96 89 72 67 62 57 56 53 50 48 43 43 44 43 40 40 38 38 41 46 45 44
86 94 97 99 99 99 100 99 99 100 100 100 98 96 94 92 89 79 88 94 96 87 82 77 68 62 58 53 51 49 47 46 45 48 49 46 47 41 42 43 47 41 39
98 100 100 99 99 99 99 100 99 99 97 98 96 96 86 78 82 92 96 96 89 92 82 76 61 57 54 53 54 55 54 50 46 46 53 54 49 51 53 49 52 49 38
93 89 88 84 83 84 86 87 85 89 91 93 83 78 86 91 94 93 91 90 88 69 59 53 51 48 49 50 51 54 57 64 66 65 56 57 58 61 59 57 60 48 45
76 75 72 72 75 74 72 73 75 79 83 88 85 97 97 98 88 89 95 84 65 58 55 52 50 45 44 45 46 46 47 58 62 71 76 68 64 69 65 60 58 49 47
65 65 68 68 69 72 76 79 84 88 90 92 91 90 90 72 67 64 64 64 55 50 48 46 46 46 48 48 50 53 54 55 61 74 76 73 72 81 64 67 57 53 50
62 64 68 74 78 76 77 79 82 84 79 66 58 56 53 51 54 58 65 68 68 65 61 58 55 57 57 58 63 63 61 63 62 60 66 77 88 69 66 62 66 58 62
64 69 72 70 71 72 72 67 61 55 49 46 45 48 53 56 67 60 62 64 66 61 58 57 56 58 57 56 72 87 85 74 69 66 81 92 91 88 79 66 68 67 58
67 67 68 64 62 60 56 50 46 46 51 62 60 59 49 53 55 60 61 69 74 83 77 73 69 66 67 76 79 85 94 95 95 80 77 89 94 70 77 86 76 71 65
60 58 56 52 46 48 48 46 41 39 42 44 52 51 53 58 58 63 66 68 66 72 72 77 76 78 76 74 80 86 92 99 100 100 98 97 95 95 80 70 73 66 61
54 52 48 43 38 35 33 34 29 35 42 47 45 52 50 56 54 60 66 71 72 74 74 78 79 71 83 83 77 74 80 91 100 100 99 98 89 89 97 94 75 57 58
47 44 38 34 31 29 28 29 34 46 47 46 49 55 57 62 58 74 74 75 73 75 78 82 80 92 86 80 76 82 96 96 100 99 100 98 90 98 98 96 94 82 72
37 33 33 33 30 32 35 40 47 68 56 64 64 63 73 75 77 90 90 83 85 87 87 85 78 82 84 84 87 88 85 96 100 100 99 95 87 97 99 96 99 94 91
33 35 44 45 41 31 31 53 51 48 46 49 68 70 83 89 93 93 91 88 90 79 76 65 73 86 86 86 91 94 97 95 99 99 99 93 87 95 97 97 97 96 82
37 43 48 46 41 41 41 42 40 77 64 69 70 69 79 89 88 92 88 85 82 70 64 62 68 81 86 86 84 90 96 99 96 96 96 95 95 91 99 99 98 92 88
45 41 42 44 45 48 47 51 51 56 63 64 69 68 68 81 88 89 83 81 67 65 64 63 67 75 85 90 91 94 93 96 97 99 94 92 93 98 98 97 96 96 83
41 44 54 62 63 60 61 60 60 60 62 62 60 59 65 78 81 82 79 75 73 70 67 68 70 75 87 92 95 95 96 97 98 99 99 97 99 99 98 97 98 97 95
53 55 55 57 60 60 59 61 57 62 62 62 64 66 74 79 77 74 72 74 74 72 73 74 78 86 89 93 96 96 95 96 96 98 98 99 96 97 98 98 98 97 90
48 54 54 53 57 59 62 64 63 67 68 67 68 75 80 81 81 72 70 71 74 77 80 84 87 92 91 92 94 96 95 96 96 97 97 97 98 99 98 98 98 98 93
57 59 62 67 65 74 72 66 71 73 72 70 70 70 75 81 75 75 73 78 86 86 89 88 90 91 94 92 93 96 98 95 97 97 97 95 98 97 98 98 98 98 82
71 70 65 64 73 76 80 77 75 78 76 76 75 75 77 78 81 80 82 86 89 91 92 94 92 94 92 93 94 93 96 96 96 96 96 96 96 97 98 98 98 97 82
78 83 71 71 81 81 81 84 82 82 79 78 80 81 80 81 83 85 86 90 91 92 93 94 96 96 95 97 96 95 95 97 96 96 98 98 97 97 96 98 98 98 88
86 85 84 82 82 83 86 83 83 83 83 82 83 83 82 84 83 85 88 90 93 93 96 95 96 97 95 99 97 100 98 99 98 99 100 100 100 99 95 98 97 97 90
83 81 83 85 84 86 86 85 85 85 84 84 86 86 87 87 87 90 92 92 93 97 99 98 98 100 100 98 99 97 96 97 97 97 98 100 100 97 96 98 96 98 93